Voltar ao catálogo

THOR ABLESTAR DEB

AtivoLEO
NORAD 132·DEBRIS·🇺🇸 United States

Lançado Jun 29, 1961 de Cape Canaveral Space Force Station

Loading…

Próximas Passagens (próximas 24 horas)

TLE

AtualizadoSource: Space-Track

Época: Sep 5, 2026, 09:27 UTC

1 00132U 61015S   26248.39422747 -.00000030  00000-0  35357-4 0  9990
2 00132  66.6597 133.6144 0069819 140.1379 220.4858 13.94782845314858

Acompanhe THOR ABLESTAR DEB em tempo real com AllMySat

Download on the App Store